Terminal Aerodrome Forecast
Issued by NWS

Home | Current Version | Previous Version | Text Only | Print | Product List | Glossary On
Versions: 1 2 3 4 5 6 7 8 9 10 11 12 13 14 15 16 17 18 19 20 21 22 23 24 25 26 27 28 29 30 31 32 33 34 35 36 37 38 39 40 41 42 43 44 45 46 47 48
000
FTAK31 PANC 022334
TAFAAQ
TAF
PAAQ 022334Z 0300/0324 15007KT P6SM SCT060 OVC100
     FM030800 35006KT P6SM VCSH SCT050 BKN070 OVC120
     FM031600 35008KT P6SM -SHRASN SCT040 OVC060=

USA.gov is the U.S. government's official web portal to all federal, state and local government web resources and services.